Regional Weather Roundup
Issued by NWS Cleveland, OH

Home | Current Version | Previous Version | Text Only | Print | Product List | Glossary On
Versions: 1 2 3 4 5 6 7 8 9 10 11 12 13 14 15 16 17 18 19 20 21 22 23 24 25 26 27 28 29 30 31 32 33 34 35 36 37 38 39 40 41 42 43 44 45 46 47 48 49 50
000
ASUS41 KCLE 232112
RWRCLE
OHIO REGIONAL WEATHER ROUNDUP
NATIONAL WEATHER SERVICE WILMINGTON, OH
400 PM EST MON JAN 23 2017

NOTE: "FAIR" INDICATES FEW OR NO CLOUDS BELOW 12,000 FEET WITH NO
SIGNIFICANT WEATHER AND/OR OBSTRUCTIONS TO VISIBILITY.

OHZ001>008-015>018-024>027-034-035-043-044-232200-
   NORTHWEST OHIO

CITY           SKY/WX    TMP DP  RH WIND       PRES   REMARKS
DEFIANCE       CLOUDY    43  41  93 NE8       29.63S
FINDLAY        CLOUDY    40  37  89 N10       29.60R FOG
TOLEDO EXPRESS LGT RAIN  43  43 100 NE6       29.63S FOG
TOLEDO EXEC    CLOUDY    40  40 100 NE7       29.65R FOG
LIMA           CLOUDY    41  41 100 N10       29.59R FOG
$$

OHZ009>014-019>023-028>033-038-089-232200-
   NORTHEAST OHIO

CITY           SKY/WX    TMP DP  RH WIND       PRES   REMARKS
CLE-HOPKINS    CLOUDY    42  38  85 NE9       29.61R FOG
CLE-LAKEFRONT  FOG       38  37  97 NE17      29.58R VSB 1
CUY CO. ARPT   CLOUDY    45  41  87 NE14      29.59R FOG
LORAIN-ELYRIA  LGT RAIN  38  36  92 NE12      29.60R FOG
ASHTABULA      CLOUDY    43  40  89 NE7       29.59R
AKRON-CANTON   LGT RAIN  46  40  79 E15       29.55R
WOOSTER        LGT RAIN  46  42  86 E12       29.55R
MANSFIELD      LGT RAIN  45  44  97 N9        29.54S FOG
YOUNGSTOWN     LGT RAIN  46  43  89 E5        29.57R FOG
$$

OHZ042-051>053-060>062-070>072-077>081-232200-
  SOUTHWEST OHIO

CITY           SKY/WX    TMP DP  RH WIND       PRES   REMARKS
CINC-COVINGTON CLOUDY    47  45  93 NW16      29.55R
CINC-LUNKEN    CLOUDY    49  46  90 N12       29.55R
HAMILTON       CLOUDY    49  46  90 N13       29.57R
DAYTON         LGT RAIN  44  42  93 N13       29.57R
WRIGHT-PAT AFB CLOUDY    46  46 100 N12       29.55R
DAYTON GENERAL CLOUDY    46  44  93 N12       29.54R
WILMINGTON     LGT RAIN  47  46  97 N13G23    29.52R FOG
$$

OHZ036-037-039>041-045>050-054>059-063>069-073>076-082>088-232200-
  CENTRAL AND SOUTHEAST OHIO

CITY           SKY/WX    TMP DP  RH WIND       PRES   REMARKS
COLUMBUS       CLOUDY    49  45  86 NE6       29.52R
OSU AIRPORT    LGT RAIN  48  48 100 N10       29.52S
BOLTON FIELD   LGT RAIN  48  46  93 NE8       29.53R FOG
RICKENBACK AFB   N/A     47  46  97 NE9       29.51S FOG
NEWARK         CLOUDY    48  44  86 VRB5      29.51R FOG
MARION         LGT RAIN  45  43  93 N13       29.56S FOG
LANCASTER      CLOUDY    49  44  83 NE13      29.52R
ZANESVILLE     LGT RAIN  46  41  82 E10G18    29.52R
NEW PHILLY     LGT RAIN  45  42  89 E13       29.55R
$$



USA.gov is the U.S. government's official web portal to all federal, state and local government web resources and services.